Location: Asheville, NC
(35.6000°N, 82.5500°W)
Time: 12:53:02
(UTC-05:00)

SRMSAT - Pass Details

Date: 09 January 2018
Orbit: 849 x 866 km, 20.0° (Epoch: 16 January)

Event Time Altitude Azimuth Distance (km) Brightness Sun altitude
Rises 18:22:18 0° 219° (SW) 3,419 ? -9.7°
Reaches altitude 10° 18:26:35 10° 191° (S) 2,481 ? -10.5°
Maximum altitude 18:28:54 12° 168° (SSE) 2,316 ? -10.9°
Drops below altitude 10° 18:31:13 10° 145° (SE) 2,479 ? -11.4°
Enters shadow 18:34:42 - 120° (ESE) 3,202 ? -12.0°
